Location: B?dimalle
(17.1788°N, 80.5377°E)
Time: 08:07:09
(UTC+00:00)

Vanguard 1 Rocket - All Passes

Search period start: 16 February 2026 00:00
Search period end: 26 February 2026 00:00
Orbit: 652 x 4215 km, 34.3° (Epoch: 12 February)

Date Brightness Start Highest point End Pass type
(mag) Time Alt. Az. Time Alt. Az. Time Alt. Az.
16 Feb - 04:55:42 10° SSW 05:00:38 35° SE 05:08:36 10° ENE daylight
16 Feb - 07:19:01 10° W 07:26:26 57° NNW 07:41:06 10° NE daylight
16 Feb - 09:45:46 10° WNW 09:57:32 42° N 10:18:18 10° ENE daylight
16 Feb - 12:13:35 10° NW 12:32:22 58° NNE 12:58:18 10° E visible
16 Feb - 14:42:42 10° WNW 15:07:12 81° SW 15:30:58 10° SE visible
16 Feb - 17:17:30 10° WNW 17:39:02 34° SW 17:55:50 10° SSE visible
17 Feb - 03:47:03 10° SSE 03:49:04 12° SE 03:51:21 10° ESE daylight
17 Feb - 06:07:06 10° WSW 06:13:09 83° NNW 06:24:48 10° ENE daylight
17 Feb - 08:32:45 10° WNW 08:41:55 42° N 08:58:58 10° ENE daylight
17 Feb - 11:00:04 10° WNW 11:15:08 48° NNE 11:39:17 10° E daylight
17 Feb - 13:28:00 10° WNW 13:50:01 80° NNE 14:15:54 10° ESE visible
17 Feb - 15:59:10 10° WNW 16:23:21 52° SW 16:44:06 10° SSE visible
17 Feb - 18:44:27 10° WSW 18:54:12 14° SW 19:02:33 10° SSW visible
18 Feb - 04:55:53 10° SW 05:00:53 51° SE 05:09:18 10° ENE daylight
18 Feb - 07:20:08 10° W 07:27:22 46° NNW 07:41:10 10° NE daylight
18 Feb - 09:46:55 10° WNW 09:58:37 41° N 10:19:12 10° ENE daylight
18 Feb - 12:14:08 10° NW 12:32:46 64° NNE 12:59:02 10° ESE visible
18 Feb - 14:43:03 10° WNW 15:06:54 71° SW 15:30:51 10° SE visible
18 Feb - 17:19:16 10° W 17:38:46 27° SW 17:54:46 10° S visible
19 Feb - 03:45:47 10° S 03:49:15 19° SE 03:53:41 10° E daylight
19 Feb - 06:07:57 10° WSW 06:13:51 63° NNW 06:24:55 10° NE daylight
19 Feb - 08:34:01 10° WNW 08:43:02 38° N 08:59:29 10° ENE daylight
19 Feb - 11:00:51 10° NW 11:15:53 51° NNE 11:40:17 10° E daylight
19 Feb - 13:28:21 10° WNW 13:49:57 89° NNE 14:16:03 10° SE visible
19 Feb - 16:00:01 10° WNW 16:22:57 44° SW 16:43:28 10° SSE visible
20 Feb - 04:56:20 10° SW 05:01:19 75° SE 05:09:47 10° ENE daylight
20 Feb - 07:21:22 10° WNW 07:28:24 39° N 07:41:20 10° NE daylight
20 Feb - 09:47:56 10° NW 09:59:37 42° NNE 10:20:13 10° E daylight
20 Feb - 12:14:37 10° NW 12:33:00 71° NNE 12:59:32 10° ESE visible
20 Feb - 14:43:33 10° WNW 15:06:34 62° SW 15:30:29 10° SE visible
20 Feb - 17:21:53 10° W 17:38:45 22° SW 17:53:13 10° S visible
21 Feb - 03:45:29 10° SSW 03:49:31 30° SE 03:54:59 10° ENE daylight
21 Feb - 06:09:00 10° W 06:14:42 48° NNW 06:25:02 10° NE daylight
21 Feb - 08:35:14 10° WNW 08:44:10 36° N 09:00:12 10° ENE daylight
21 Feb - 11:01:31 10° NW 11:16:27 56° NNE 11:41:09 10° E daylight
21 Feb - 13:28:46 10° WNW 13:49:47 81° SW 14:15:59 10° SE visible
21 Feb - 16:01:15 10° W 16:22:41 36° SW 16:42:34 10° SSE visible
22 Feb - 04:57:01 10° WSW 05:01:55 76° NNW 05:10:06 10° ENE daylight
22 Feb - 07:22:40 10° WNW 07:29:31 34° N 07:41:40 10° ENE daylight
22 Feb - 09:48:50 10° NW 10:00:30 44° NNE 10:21:16 10° E daylight
22 Feb - 12:15:04 10° NW 12:33:06 79° NNE 12:59:48 10° ESE visible
22 Feb - 14:44:14 10° WNW 15:06:16 53° SW 15:29:54 10° SSE visible
22 Feb - 17:25:51 10° WSW 17:39:02 16° SW 17:50:53 10° S visible
23 Feb - 03:45:37 10° SW 03:49:55 48° SE 03:55:52 10° ENE daylight
23 Feb - 06:10:11 10° W 06:15:42 37° NNW 06:25:10 10° NE daylight
23 Feb - 08:36:22 10° NW 08:45:15 35° N 09:01:06 10° ENE daylight
23 Feb - 11:02:07 10° NW 11:16:51 62° NNE 11:41:49 10° ESE daylight
23 Feb - 13:29:15 10° WNW 13:49:37 71° SW 14:15:40 10° SE visible
23 Feb - 16:03:02 10° W 16:22:36 29° SW 16:41:21 10° S visible
24 Feb - 02:35:16 10° S 02:38:12 17° SE 02:41:21 10° E daylight
24 Feb - 04:57:56 10° WSW 05:02:41 53° NNW 05:10:20 10° NE daylight
24 Feb - 07:23:58 10° WNW 07:30:40 30° N 07:42:11 10° ENE daylight
24 Feb - 09:49:37 10° NW 10:01:15 47° NNE 10:22:16 10° E daylight
24 Feb - 12:15:32 10° WNW 12:33:06 89° NE 12:59:49 10° SE visible
24 Feb - 14:45:13 10° WNW 15:06:05 44° SW 15:29:04 10° SSE visible
24 Feb - 17:32:45 10° WSW 17:39:45 12° SW 17:46:24 10° SSW visible
25 Feb - 03:46:04 10° SW 03:50:27 78° SSE 03:56:29 10° ENE daylight
25 Feb - 06:11:30 10° WNW 06:16:46 30° N 06:25:22 10° NE daylight
25 Feb - 08:37:23 10° NW 08:46:15 36° NNE 09:02:08 10° ENE daylight
25 Feb - 11:02:38 10° NW 11:17:08 69° NNE 11:42:16 10° ESE daylight
25 Feb - 13:29:53 10° WNW 13:49:28 61° SW 14:15:06 10° SE visible
25 Feb - 16:05:34 10° W 16:22:49 23° SW 16:39:43 10° S visible
